Change the Weather History Date:

Friday, November 4, 2011

  Actual Average Record
Temperature  
Mean Temperature 40 °F -  
Max Temperature 57 °F 55 °F 79 °F (1978)
Min Temperature 23 °F 33 °F 0 °F (1991)
Degree Days  
Heating Degree Days 25    
Moisture  
Dew Point 31 °F    
Average Humidity 76    
Maximum Humidity 96    
Minimum Humidity 40    
Precipitation  
Precipitation 0.00 in - - ()
Sea Level Pressure  
Sea Level Pressure 30.19 in    
Wind  
Wind Speed 4 mph (SE)    
Max Wind Speed 13 mph    
Max Gust Speed 21 mph    
Visibility 10 miles    
Events      
Averages and records for this station are not official NWS values.
T = Trace of Precipitation, MM = Missing Value Source: NWS Daily Summary

Daily Weather History Graph

Daily Weather History Graph

Search for Another Location

Airport or City:

Trip Planner

Search our weather history database for the weather conditions in past years. The results will help you decide how hot, cold, wet, or windy it might be!

Date:

Astronomy

Nov. 04, 2011 Rise Set
Actual Time 7:54 AM CDT 6:16 PM CDT
Civil Twilight 7:26 AM CDT 6:44 PM CDT
Nautical Twilight 6:54 AM CDT 7:17 PM CDT
Astronomical Twilight 6:22 AM CDT 7:48 PM CDT
Moon 3:08 PM CDT (11/4) 2:07 AM CDT (11/4)
Length of Visible Light 11h 18m
Length of Day
10h 21m
Waxing Gibbous, 69% of the Moon is Illuminated
Nov 4
Waxing Gibbous
Nov 10
Full
Nov 18
Last Quarter
Nov 25
New
Dec 2
First Quarter

Hourly Weather History & Observations

Time (CDT) Temp. Windchill Dew Point Humidity Pressure Visibility Wind Dir Wind Speed Gust Speed Precip Events Conditions
12:53 AM 28.0 °F - 25.0 °F 88% 30.30 in 10.0 mi Calm Calm - N/A   Clear
1:53 AM 28.0 °F - 26.1 °F 92% 30.29 in 10.0 mi Calm Calm - N/A   Clear
2:53 AM 26.1 °F - 25.0 °F 96% 30.27 in 10.0 mi Calm Calm - N/A   Clear
3:53 AM 25.0 °F 18.1 °F 24.1 °F 96% 30.28 in 10.0 mi West 5.8 mph - N/A   Clear
4:53 AM 24.1 °F - 23.0 °F 96% 30.29 in 10.0 mi Calm Calm - N/A   Clear
5:53 AM 26.1 °F - 24.1 °F 92% 30.28 in 10.0 mi Calm Calm - N/A   Clear
6:53 AM 23.0 °F 18.4 °F 21.9 °F 96% 30.27 in 10.0 mi ESE 3.5 mph - N/A   Clear
7:53 AM 25.0 °F 19.3 °F 24.1 °F 96% 30.28 in 10.0 mi South 4.6 mph - N/A   Clear
8:53 AM 27.0 °F - 26.1 °F 96% 30.29 in 10.0 mi Calm Calm - N/A   Clear
9:53 AM 34.0 °F 31.0 °F 32.0 °F 92% 30.29 in 10.0 mi SE 3.5 mph - N/A   Clear
10:53 AM 44.1 °F 39.0 °F 37.0 °F 76% 30.27 in 10.0 mi SSE 9.2 mph - N/A   Clear
11:53 AM 48.9 °F - 34.0 °F 56% 30.25 in 10.0 mi SSE 11.5 mph - N/A   Clear
12:53 PM 52.0 °F - 33.1 °F 49% 30.22 in 10.0 mi SSE 10.4 mph - N/A   Clear
1:53 PM 55.0 °F - 33.1 °F 43% 30.17 in 10.0 mi SE 10.4 mph 18.4 mph N/A   Clear
2:53 PM 55.9 °F - 33.1 °F 42% 30.14 in 10.0 mi SE 12.7 mph - N/A   Clear
3:53 PM 57.0 °F - 33.1 °F 40% 30.12 in 10.0 mi SSE 10.4 mph - N/A   Clear
4:53 PM 55.0 °F - 34.0 °F 45% 30.09 in 10.0 mi SE 12.7 mph 20.7 mph N/A   Clear
5:53 PM 52.0 °F - 35.1 °F 53% 30.09 in 10.0 mi SE 10.4 mph - N/A   Clear
6:53 PM 48.9 °F - 35.1 °F 59% 30.09 in 10.0 mi SE 9.2 mph - N/A   Clear
7:53 PM 46.9 °F - 37.9 °F 71% 30.08 in 10.0 mi SE 10.4 mph - N/A   Clear
8:53 PM 45.0 °F 41.2 °F 39.9 °F 82% 30.08 in 10.0 mi SE 6.9 mph - N/A   Clear
9:53 PM 44.1 °F 39.5 °F 39.9 °F 85% 30.09 in 10.0 mi SE 8.1 mph - N/A   Clear
10:53 PM 43.0 °F 37.7 °F 39.9 °F 89% 30.07 in 9.0 mi SE 9.2 mph - N/A   Clear
11:53 PM 41.0 °F 35.8 °F 39.0 °F 93% 30.06 in 7.0 mi SE 8.1 mph - N/A   Clear